01:44
Airports
History
Links
Donate
Help keep this website running!
PayPal
Bitcoin
This page is community maintained. The information is intended for PC simulator navigation or reference.
Always use approved charts for navigation.
EDWC
DammeEdited 07-Mar-2012
Damme (EDWC)
Damme, Niedersachsen, Germany (49401)
(U)
Lat/Lng:52° 29' 15.21" N / 8° 11' 7.04" E
52.487558 / 8.18529
Elevation:151'ft / 46mMSL
ID / ICAO:EDWC
Runways:1
Longest:11-29
Asphalt 692m / 2,270ft
Beacon:White-Green
(Edited 2012-03-07) [ Sign in to Edit ]
Nearby Weather14:20 GMT 2017-11-22
Nearby weather at ETND, Diepholz located 9.4 nautical miles from EDWC
Altimeter: 29.68
Visibility: 6.2 statute miles
Wind: 10 knots (from 220°)
Temp: 11°c / 52°f
Humidity: 76.3%

METAR: ETND 221420Z 22010KT 9999 BKN230 11/07 Q1005 BLU+

(Powered by phpweather)
Nearby VORs <50NM
Nearby NDBs
Runway 11 / 29
Dimensions:692 x 20.1m 2270' x 66'ft
Surface:Asphalt
Runway 11 [A]Runway 29 [B]
Heading:104°TH 284°TH
Lat:
Lng:
52° 29' 17.95"N
8° 10' 48.98"E
52° 29' 12.47"N
8° 11' 25.11"E
User Notes and Comments
52° 29' 15.21" N / 8° 11' 7.04" E
Distance To
Airport ID:
Nearby Airports
(C) Diepholz 9.4 NM
ETND ( WX ) NE 43°
(C) Bohmte-Bad Essen 11.3 NM
EDXD SSE 147°
(C) Achmer 13.7 NM
EDXA SW 236°
(U) Osnabrueck Atterheide 16.5 NM
EDWO SSW 211°
(U) Melle Groengau 21.4 NM
EDXG SSE 157°
(C) Varrelbusch 29.7 NM
EDWU NNW 348°
(C) Muenster Osnabrueck 32.3 NM
EDDG ( WX ) SW 220°
VFR Chart
Flight Planning at SkyVector.com